Location: Wyoming Infrared Observatory
(41.0971°N, 105.9765°W)
Time: 07:07:52
(UTC-06:00)

Amateur Radio Satellites - All Passes

Search period start: 03 August 2015 06:37
Search period end: 04 August 2015 06:37
Location: Wyoming Infrared Observatory, 41.0971°N, 105.9765°W

Satellite Date Start Highest point End Downlink Frequencies (MHz)
Time Altitude Azimuth
Cosmos 2499 03 Aug 06:38:41 06:43:45 21° 81° (E) 06:49:24 435.465 / 435.565
Cubesat XI-IV 03 Aug 06:41:21 06:45:54 29° 95° (E) 06:50:31 437.490
CUBESAT XI-V 03 Aug 06:44:46 06:49:25 61° 260° (W) 06:54:03 437.345
PRISM 03 Aug 06:52:01 06:55:51 37° 72° (ENE) 06:59:45 437.425
BEESAT 2 03 Aug 07:19:47 07:22:44 19° 44° (NE) 07:25:44 435.950
CUTE-I 03 Aug 07:36:03 07:41:25 89° 286° (WNW) 07:46:44 437.470
PCSat 03 Aug 07:36:24 07:37:48 11° 104° (ESE) 07:39:33 145.827
RS-15 03 Aug 07:43:51 07:55:18 56° 247° (WSW) 08:06:58 29.354- 29.394
AO-7 03 Aug 07:46:14 07:51:00 16° 311° (NW) 07:55:22 29.400- 29.500
SO-50 03 Aug 07:52:36 07:54:03 12° 108° (ESE) 07:55:48 436.795
BEESAT 3 03 Aug 07:55:39 07:59:36 50° 54° (NE) 08:03:29 437.485
STRAND 1 03 Aug 08:10:19 08:14:50 30° 265° (W) 08:19:19 437.568
Cubesat XI-IV 03 Aug 08:21:14 08:26:05 36° 291° (WNW) 08:30:51 437.490
GOMX 1 03 Aug 08:25:30 08:29:18 25° 95° (E) 08:33:22 467.674
BRITE-PL 03 Aug 08:26:13 08:30:27 41° 98° (E) 08:35:00 437.365/2234.400
GONETS M04 03 Aug 08:27:28 08:33:59 22° 298° (WNW) 08:40:08
PRISM 03 Aug 08:28:32 08:31:28 18° 268° (W) 08:34:16 437.425
Cosmos 2499 03 Aug 08:28:36 08:36:02 72° 280° (W) 08:44:07 435.465 / 435.565
COMPASS 1 03 Aug 08:49:33 08:50:54 12° 88° (E) 08:52:29 437.405
HO-68 03 Aug 08:53:10 08:59:22 32° 95° (E) 09:05:42 435.675
BEESAT 2 03 Aug 08:57:07 09:01:02 45° 242° (WSW) 09:04:52 435.950
SEEDS 03 Aug 09:06:50 09:10:17 24° 94° (E) 09:13:46 437.485
AIST 2 03 Aug 09:07:50 09:11:56 50° 53° (NE) 09:15:57 435.215
M-CUBED/EXP-1 PRIME 03 Aug 09:12:20 09:16:16 44° 66° (ENE) 09:20:33 437.505
CUTE 1.7 + AOD 2 03 Aug 09:13:14 09:17:11 35° 96° (E) 09:21:07 437.475
PCSat 03 Aug 09:15:06 09:20:31 89° 127° (SE) 09:25:59 145.827
CUTE-I 03 Aug 09:18:31 09:20:48 12° 300° (WNW) 09:22:48 437.470
CANX-2 03 Aug 09:21:50 09:26:02 49° 99° (E) 09:30:12 2200.000
AAUSAT CUBESAT 2 03 Aug 09:27:05 09:30:38 26° 94° (E) 09:34:12 437.432
UNISAT 6 03 Aug 09:27:12 09:28:45 12° 63° (ENE) 09:30:31 437.425
Oscar 11 03 Aug 09:28:10 09:29:48 12° 88° (E) 09:31:42 145.826/435.025
UWE-3 03 Aug 09:28:38 09:29:46 11° 87° (E) 09:31:13 435.000/436.395/437.385
SO-50 03 Aug 09:29:12 09:33:57 83° 303° (WNW) 09:38:53 436.795
CINEMA 3 03 Aug 09:31:49 09:36:07 34° 96° (E) 09:40:37 145.822/145.860
BEESAT 3 03 Aug 09:34:53 09:37:09 14° 249° (WSW) 09:39:15 437.485
AUBIESAT-1 03 Aug 09:39:09 09:43:15 76° 71° (ENE) 09:47:43 437.475
DOVE 4 03 Aug 09:39:39 09:44:21 90° 115° (ESE) 09:49:19 437.250
CUBEBUG 2 03 Aug 09:47:08 09:50:49 23° 93° (E) 09:54:39 437.445
YUBILEINY 03 Aug 10:00:48 10:06:18 18° 59° (ENE) 10:12:16 435.215
GOMX 1 03 Aug 10:03:21 10:07:28 33° 289° (WNW) 10:11:47 467.674
BRITE-PL 03 Aug 10:05:35 10:08:49 19° 292° (WNW) 10:12:03 437.365/2234.400
TIGRISAT 03 Aug 10:07:01 10:10:44 29° 69° (ENE) 10:14:38 435.000
ANTELSAT 03 Aug 10:09:43 10:13:36 32° 70° (ENE) 10:17:37 437.575/2403.000
COMPASS 1 03 Aug 10:22:51 10:27:01 58° 286° (WNW) 10:31:08 437.405
Cosmos 2499 03 Aug 10:27:27 10:31:10 13° 305° (NW) 10:34:28 435.465 / 435.565
POLYITAN 1 03 Aug 10:28:45 10:31:45 20° 67° (ENE) 10:34:53 437.675
DELFI C3 03 Aug 10:31:01 10:34:52 40° 98° (E) 10:38:40 145.870
ZACube-1 03 Aug 10:32:58 10:37:18 41° 98° (E) 10:41:40 437.345
BUGSAT 1 03 Aug 10:36:44 10:38:48 14° 66° (ENE) 10:41:01 437.445
Cosmos 2491 03 Aug 10:39:48 10:42:58 13° 77° (ENE) 10:46:49 435.465 / 435.565
HO-68 03 Aug 10:40:28 10:47:22 50° 293° (WNW) 10:54:12 435.675
SEEDS 03 Aug 10:42:22 10:46:05 28° 290° (WNW) 10:49:42 437.485
POPSAT HIP 1 03 Aug 10:44:10 10:47:43 28° 70° (ENE) 10:51:21 437.405
AIST 2 03 Aug 10:47:36 10:50:08 15° 249° (WSW) 10:52:30 435.215
M-CUBED/EXP-1 PRIME 03 Aug 10:48:40 10:51:23 17° 266° (W) 10:54:06 437.505
CUTE 1.7 + AOD 2 03 Aug 10:49:39 10:52:53 20° 292° (WNW) 10:56:00 437.475
QB50P2 03 Aug 10:52:11 10:55:59 35° 72° (ENE) 10:59:53 145.880/145.840
FUNcube-1 03 Aug 10:53:23 10:57:56 67° 101° (ESE) 11:02:31 145.935
CANX-2 03 Aug 10:59:00 11:01:34 15° 294° (WNW) 11:04:00 2200.000
HUMSAT D 03 Aug 10:59:41 11:03:34 32° 96° (E) 11:07:28 437.325/437.525
UNISAT 6 03 Aug 11:00:37 11:04:58 71° 259° (WSW) 11:09:27 437.425
PCSat 03 Aug 11:01:15 11:04:46 17° 319° (NW) 11:08:07 145.827
Oscar 11 03 Aug 11:02:09 11:06:27 59° 286° (WNW) 11:10:43 145.826/435.025
UWE-3 03 Aug 11:02:14 11:06:52 74° 284° (WNW) 11:11:31 435.000/436.395/437.385
AAUSAT CUBESAT 2 03 Aug 11:02:40 11:06:10 25° 290° (WNW) 11:09:34 437.432
UKube-1 03 Aug 11:04:24 11:07:38 21° 93° (E) 11:10:58 .
CINEMA 3 03 Aug 11:09:15 11:13:11 26° 291° (WNW) 11:17:09 145.822/145.860
O/OREOS (USA 219) 03 Aug 11:11:41 11:16:16 64° 66° (ENE) 11:20:49 437.305
SO-50 03 Aug 11:12:28 11:15:21 15° 324° (NW) 11:18:07 436.795
DUCHIFAT 1 03 Aug 11:13:32 11:17:38 58° 74° (ENE) 11:21:45 145.980
QB50P1 03 Aug 11:18:42 11:22:51 70° 75° (ENE) 11:27:04 145.935-145.965
NANOSAT C BR1 03 Aug 11:18:53 11:23:02 69° 75° (ENE) 11:27:14 145.865
DOVE 4 03 Aug 11:20:33 11:21:35 10° 297° (WNW) 11:22:20 437.250
AISAT 03 Aug 11:21:53 11:25:19 22° 94° (E) 11:28:50 437.250
CUBEBUG 2 03 Aug 11:23:18 11:27:35 36° 289° (WNW) 11:31:54 437.445
CUBEBUG 1 03 Aug 11:29:01 11:31:20 15° 90° (E) 11:33:52 437.445
DX 1 03 Aug 11:35:41 11:39:55 51° 100° (E) 11:44:10 434.975-435.025
50 SAT 03 Aug 11:42:49 11:46:37 43° 98° (E) 11:50:25 437.505
TIGRISAT 03 Aug 11:43:51 11:47:30 25° 266° (W) 11:51:09 435.000
ANTELSAT 03 Aug 11:46:56 11:50:27 23° 267° (W) 11:53:57 437.575/2403.000
YUBILEINY 03 Aug 11:55:49 12:04:42 87° 82° (E) 12:13:34 435.215
VELOX 1 03 Aug 11:59:30 12:03:50 55° 100° (E) 12:08:10 145.980
POLYITAN 1 03 Aug 12:03:36 12:07:27 34° 263° (W) 12:11:19 437.675
DELFI C3 03 Aug 12:07:01 12:09:38 16° 293° (WNW) 12:12:06 145.870
AIST 1 03 Aug 12:08:51 12:13:10 69° 96° (E) 12:17:29
ZACube-1 03 Aug 12:10:00 12:13:23 20° 293° (WNW) 12:16:40 437.345
BUGSAT 1 03 Aug 12:10:01 12:13:56 47° 261° (W) 12:17:50 437.445
POPSAT HIP 1 03 Aug 12:20:10 12:23:36 24° 266° (W) 12:26:59 437.405
ESTCUBE 1 03 Aug 12:21:09 12:25:39 68° 101° (E) 12:30:06 437.505/2401.250
Oscar 19 03 Aug 12:26:51 12:30:08 18° 64° (ENE) 12:33:37 437.125/150
QB50P2 03 Aug 12:28:59 12:32:02 19° 268° (W) 12:34:59 145.880/145.840
Cosmos 2491 03 Aug 12:29:47 12:38:29 74° 94° (E) 12:47:12 435.465 / 435.565
FUNcube-1 03 Aug 12:31:32 12:33:46 13° 296° (WNW) 12:35:48 145.935
HUMSAT D 03 Aug 12:35:42 12:39:08 23° 292° (WNW) 12:42:29 437.325/437.525
UKube-1 03 Aug 12:39:57 12:43:52 34° 290° (WNW) 12:47:44 .
DUCHIFAT 1 03 Aug 12:52:24 12:53:53 11° 272° (W) 12:55:08 145.980
O/OREOS (USA 219) 03 Aug 12:53:11 12:55:12 12° 260° (W) 12:56:59 437.305
AISAT 03 Aug 12:57:59 13:01:58 33° 290° (WNW) 13:05:55 437.250
CUBEBUG 1 03 Aug 13:03:51 13:08:02 48° 287° (WNW) 13:12:12 437.445
DX 1 03 Aug 13:13:12 13:15:48 15° 295° (WNW) 13:18:14 434.975-435.025
50 SAT 03 Aug 13:18:31 13:20:51 15° 294° (WNW) 13:23:03 437.505
Cosmos 2504 03 Aug 13:28:56 13:36:59 47° 74° (ENE) 13:45:15 435.465 / 435.565
SPROUT 03 Aug 13:29:36 13:33:56 84° 284° (WNW) 13:38:14 437.525
TISAT 1 03 Aug 13:31:07 13:35:17 60° 100° (E) 13:39:28 437.305
VELOX 1 03 Aug 13:37:26 13:39:59 15° 295° (WNW) 13:42:20 145.980
BEESAT 03 Aug 13:45:07 13:47:29 14° 89° (E) 13:50:06 436.000
Gurwin Techsat 1B 03 Aug 13:45:22 13:49:51 30° 67° (ENE) 13:54:28 435.225
AIST 1 03 Aug 13:50:40 13:51:25 10° 294° (WNW) 13:51:55
ITAMSAT 1 03 Aug 13:52:15 13:56:43 30° 67° (ENE) 14:01:17 435.822/435.867
YUBILEINY 03 Aug 13:54:40 14:00:31 19° 280° (W) 14:05:53 435.215
ESTCUBE 1 03 Aug 13:59:59 14:02:00 13° 297° (WNW) 14:03:50 437.505/2401.250
Oscar 19 03 Aug 14:04:03 14:09:05 58° 260° (W) 14:14:09 437.125/150
SWISSCUBE 03 Aug 14:04:56 14:08:47 25° 94° (E) 14:12:44 437.505
JAS-2 03 Aug 14:09:27 14:14:15 24° 60° (ENE) 14:19:40 435.910
ITUPSAT 1 03 Aug 14:26:51 14:31:16 37° 97° (E) 14:35:41 437.325
Cosmos 2491 03 Aug 14:29:24 14:36:22 24° 296° (WNW) 14:43:00 435.465 / 435.565
DANDE 03 Aug 14:53:34 14:57:01 27° 77° (ENE) 15:01:27 436.750
CUSAT 1 03 Aug 14:54:06 14:58:21 47° 78° (ENE) 15:04:00 437.405
AO-7 03 Aug 14:58:14 15:05:38 38° 61° (ENE) 15:13:11 29.400- 29.500
TISAT 1 03 Aug 15:08:40 15:10:37 13° 296° (WNW) 15:12:22 437.305
BEESAT 03 Aug 15:21:05 15:25:49 60° 287° (WNW) 15:30:30 436.000
Cosmos 2504 03 Aug 15:21:23 15:29:06 39° 273° (W) 15:36:46 435.465 / 435.565
Gurwin Techsat 1B 03 Aug 15:24:53 15:29:46 35° 264° (W) 15:34:36 435.225
KKS-1 03 Aug 15:29:57 15:33:48 28° 95° (E) 15:37:42 437.445
ITAMSAT 1 03 Aug 15:31:27 15:36:10 33° 264° (W) 15:40:51 435.822/435.867
HORYU 2 03 Aug 15:34:31 15:38:36 37° 71° (ENE) 15:42:45 437.375
SWISSCUBE 03 Aug 15:42:24 15:46:44 34° 291° (WNW) 15:50:59 437.505
JAS-2 03 Aug 15:52:32 15:58:39 65° 260° (W) 16:05:39 435.910
ITUPSAT 1 03 Aug 16:05:08 16:08:59 24° 293° (WNW) 16:12:43 437.325
PCSat 03 Aug 16:21:31 16:24:01 13° 37° (NE) 16:26:43 145.827
SO-50 03 Aug 16:21:35 16:24:32 16° 37° (NE) 16:27:34 436.795
STARS 03 Aug 16:32:13 16:36:40 82° 103° (ESE) 16:41:06 437.465
DANDE 03 Aug 16:36:35 16:40:05 25° 263° (W) 16:44:20 436.750
CUSAT 1 03 Aug 16:37:32 16:40:53 19° 265° (W) 16:44:37 437.405
GONETS M04 03 Aug 16:37:47 16:45:49 40° 72° (ENE) 16:53:58
MOZHAYETS 4 03 Aug 16:40:29 16:43:55 21° 92° (E) 16:47:25
AO-7 03 Aug 16:50:08 16:58:15 52° 259° (W) 17:06:21 29.400- 29.500
KKS-1 03 Aug 17:06:35 17:10:22 27° 291° (WNW) 17:14:06 437.445
HORYU 2 03 Aug 17:12:01 17:15:24 20° 267° (W) 17:18:40 437.375
CUTE-I 03 Aug 17:19:50 17:23:34 20° 64° (ENE) 17:27:28 437.470
VERMONT LUNAR 03 Aug 17:52:46 17:55:44 37° 160° (SSE) 17:58:43 437.305
SO-50 03 Aug 18:00:53 18:05:52 86° 55° (NE) 18:10:44 436.795
Cubesat XI-IV 03 Aug 18:03:05 18:08:12 48° 71° (ENE) 18:13:22 437.490
PCSat 03 Aug 18:03:08 18:08:33 69° 58° (ENE) 18:13:57 145.827
STARS 03 Aug 18:11:36 18:12:32 10° 298° (WNW) 18:13:13 437.465
MOZHAYETS 4 03 Aug 18:16:59 18:21:18 38° 289° (WNW) 18:25:32
Cosmos 2499 03 Aug 18:19:05 18:27:21 44° 73° (ENE) 18:35:45 435.465 / 435.565
GONETS M04 03 Aug 18:34:39 18:42:48 45° 271° (W) 18:50:52
CUBESAT XI-V 03 Aug 18:41:46 18:45:54 33° 96° (E) 18:50:03 437.345
STRAND 1 03 Aug 18:45:01 18:45:10 10° 86° (E) 18:45:42 437.568
PHONESAT 2.4 03 Aug 18:52:52 18:55:33 21° 152° (SSE) 18:58:15 2401.200-2431.200
CUTE-I 03 Aug 18:58:00 19:03:16 56° 260° (W) 19:08:33 437.470
HO-68 03 Aug 19:22:37 19:28:02 25° 59° (ENE) 19:33:40 435.675
VERMONT LUNAR 03 Aug 19:29:08 19:32:19 81° 173° (S) 19:35:30 437.305
GOMX 1 03 Aug 19:34:37 19:37:56 24° 69° (ENE) 19:41:17 467.674
BRITE-PL 03 Aug 19:37:40 19:41:46 45° 73° (ENE) 19:45:47 437.365/2234.400
SO-50 03 Aug 19:44:08 19:45:47 11° 252° (WSW) 19:47:08 436.795
Cubesat XI-IV 03 Aug 19:44:26 19:48:36 22° 268° (W) 19:52:37 437.490
PCSat 03 Aug 19:48:07 19:51:27 16° 254° (WSW) 19:54:33 145.827
ISS 03 Aug 19:55:30 19:58:20 28° 136° (SE) 20:01:13 145.825
RS-15 03 Aug 19:57:59 20:05:54 25° 104° (ESE) 20:14:30 29.354- 29.394
SEEDS 03 Aug 19:59:23 20:02:12 18° 67° (ENE) 20:05:09 437.485
CUTE 1.7 + AOD 2 03 Aug 20:06:12 20:09:42 26° 70° (ENE) 20:13:19 437.475
PRISM 03 Aug 20:09:14 20:13:19 62° 101° (E) 20:17:21 437.425
Cosmos 2499 03 Aug 20:12:22 20:20:33 43° 272° (W) 20:28:37 435.465 / 435.565
CANX-2 03 Aug 20:14:38 20:18:30 35° 71° (ENE) 20:22:27 2200.000
AAUSAT CUBESAT 2 03 Aug 20:18:15 20:21:09 19° 68° (ENE) 20:24:12 437.432
CUBESAT XI-V 03 Aug 20:19:27 20:23:13 24° 292° (WNW) 20:26:51 437.345
STRAND 1 03 Aug 20:20:04 20:25:11 88° 292° (WNW) 20:30:18 437.568
Oscar 11 03 Aug 20:24:28 20:25:08 10° 63° (ENE) 20:26:01 145.826/435.025
PHONESAT 2.4 03 Aug 20:29:41 20:33:09 62° 168° (SSE) 20:36:39 2401.200-2431.200
CINEMA 3 03 Aug 20:34:14 20:37:44 28° 70° (ENE) 20:41:24 145.822/145.860
DOVE 4 03 Aug 20:45:43 20:49:52 89° 79° (E) 20:54:04 437.250
CUBEBUG 2 03 Aug 20:46:15 20:49:03 18° 66° (ENE) 20:52:02 437.445
VERMONT LUNAR 03 Aug 21:05:50 21:08:58 58° 193° (SSW) 21:12:05 437.305
HO-68 03 Aug 21:08:09 21:15:15 68° 257° (WSW) 21:22:24 435.675
GOMX 1 03 Aug 21:12:26 21:16:03 27° 265° (W) 21:19:33 467.674
COMPASS 1 03 Aug 21:13:23 21:17:37 89° 255° (WSW) 21:21:53 437.405
BRITE-PL 03 Aug 21:18:10 21:20:38 14° 269° (W) 21:22:51 437.365/2234.400
DELFI C3 03 Aug 21:18:16 21:21:35 25° 70° (ENE) 21:24:58 145.870
ZACube-1 03 Aug 21:29:09 21:32:51 31° 70° (ENE) 21:36:41 437.345
ISS 03 Aug 21:31:41 21:34:43 35° 332° (NNW) 21:37:45 145.825
SEEDS 03 Aug 21:33:41 21:37:42 40° 262° (W) 21:41:45 437.485
CUTE 1.7 + AOD 2 03 Aug 21:41:53 21:45:33 27° 265° (W) 21:49:13 437.475
PRISM 03 Aug 21:46:45 21:48:17 12° 296° (WNW) 21:49:36 437.425
FUNcube-1 03 Aug 21:49:03 21:53:06 49° 73° (ENE) 21:57:18 145.935
CANX-2 03 Aug 21:51:21 21:54:33 20° 268° (W) 21:57:40 2200.000
HUMSAT D 03 Aug 21:51:45 21:54:59 22° 68° (ENE) 21:58:19 437.325/437.525
AAUSAT CUBESAT 2 03 Aug 21:52:36 21:56:31 37° 263° (W) 22:00:27 437.432
Oscar 11 03 Aug 21:56:23 22:00:44 79° 257° (WSW) 22:05:07 145.826/435.025
UWE-3 03 Aug 21:59:13 22:03:26 88° 77° (ENE) 22:07:46 435.000/436.395/437.385
UKube-1 03 Aug 21:59:34 22:02:32 19° 66° (ENE) 22:05:37 .
STRAND 1 03 Aug 22:01:54 22:03:43 12° 300° (WNW) 22:05:15 437.568
RS-15 03 Aug 22:06:09 22:17:06 83° 304° (NW) 22:28:30 29.354- 29.394
PHONESAT 2.4 03 Aug 22:07:33 22:11:04 81° 184° (S) 22:14:36 2401.200-2431.200
CINEMA 3 03 Aug 22:11:35 22:14:59 23° 267° (W) 22:18:22 145.822/145.860
AIST 1 03 Aug 22:17:07 22:19:50 17° 70° (ENE) 22:22:40
AISAT 03 Aug 22:19:56 22:23:10 21° 67° (ENE) 22:26:30 437.250
CUBEBUG 2 03 Aug 22:21:31 22:25:28 39° 263° (W) 22:29:31 437.445
CUBEBUG 1 03 Aug 22:25:54 22:27:54 13° 64° (ENE) 22:30:05 437.445
50 SAT 03 Aug 22:26:48 22:29:55 24° 69° (ENE) 22:33:09 437.505
M-CUBED/EXP-1 PRIME 03 Aug 22:27:49 22:32:19 39° 101° (ESE) 22:36:39 437.505
DX 1 03 Aug 22:31:06 22:35:13 44° 72° (ENE) 22:39:21 434.975-435.025
Cosmos 2491 03 Aug 22:40:36 22:48:23 36° 70° (ENE) 22:56:18 435.465 / 435.565
VERMONT LUNAR 03 Aug 22:43:05 22:45:20 17° 208° (SSW) 22:47:30 437.305
BEESAT 2 03 Aug 22:50:20 22:53:57 31° 115° (ESE) 22:57:38 435.950
UNISAT 6 03 Aug 22:52:54 22:56:46 25° 94° (E) 23:00:42 437.425
DELFI C3 03 Aug 22:53:10 22:56:35 25° 266° (W) 22:59:59 145.870
AUBIESAT-1 03 Aug 22:54:05 22:58:48 63° 105° (ESE) 23:03:19 437.475
VELOX 1 03 Aug 22:56:51 23:01:04 48° 73° (ENE) 23:05:21 145.980
YUBILEINY 03 Aug 23:03:24 23:08:56 20° 80° (E) 23:14:56 435.215
ZACube-1 03 Aug 23:05:56 23:09:17 22° 267° (W) 23:12:36 437.345
QB50P1 03 Aug 23:06:01 23:07:21 11° 88° (E) 23:08:56 145.935-145.965
NANOSAT C BR1 03 Aug 23:06:04 23:07:17 11° 88° (E) 23:08:45 145.865
AIST 2 03 Aug 23:08:47 23:09:38 11° 109° (ESE) 23:10:44 435.215
ISS 03 Aug 23:10:01 23:11:52 14° 352° (N) 23:13:42 145.825
ESTCUBE 1 03 Aug 23:20:27 23:24:55 61° 74° (ENE) 23:29:24 437.505/2401.250
BEESAT 3 03 Aug 23:25:11 23:29:15 82° 301° (WNW) 23:33:22 437.485
HUMSAT D 03 Aug 23:26:53 23:30:34 30° 265° (W) 23:34:17 437.325/437.525
FUNcube-1 03 Aug 23:27:33 23:29:49 14° 271° (W) 23:31:55 145.935
UKube-1 03 Aug 23:34:20 23:38:25 39° 262° (W) 23:42:29 .
TIGRISAT 03 Aug 23:34:22 23:39:04 66° 101° (E) 23:43:45 435.000
ANTELSAT 03 Aug 23:37:30 23:42:14 75° 102° (ESE) 23:46:57 437.575/2403.000
PHONESAT 2.4 03 Aug 23:45:35 23:48:53 38° 201° (SSW) 23:52:10 2401.200-2431.200
POLYITAN 1 03 Aug 23:48:39 23:52:37 36° 97° (E) 23:56:36 437.675
BUGSAT 1 03 Aug 23:52:28 23:55:43 23° 94° (E) 23:59:03 437.445
AIST 1 03 Aug 23:53:44 23:57:43 38° 268° (W) 00:01:39
AISAT 03 Aug 23:55:27 23:59:31 36° 262° (W) 00:03:36 437.250
CUBEBUG 1 03 Aug 23:59:32 00:03:49 59° 259° (W) 00:08:08 437.445
50 SAT 04 Aug 00:01:12 00:04:25 24° 266° (W) 00:07:38 437.505
M-CUBED/EXP-1 PRIME 04 Aug 00:02:56 00:06:51 25° 298° (WNW) 00:10:35 437.505
POPSAT HIP 1 04 Aug 00:04:17 00:08:28 53° 100° (E) 00:12:40 437.405
DX 1 04 Aug 00:08:55 00:11:43 16° 269° (W) 00:14:22 434.975-435.025
QB50P2 04 Aug 00:12:43 00:16:59 70° 101° (ESE) 00:21:15 145.880/145.840
RS-15 04 Aug 00:22:06 00:31:35 30° 332° (NNW) 00:41:15 29.354- 29.394
TISAT 1 04 Aug 00:23:03 00:26:59 43° 72° (ENE) 00:30:58 437.305
SPROUT 04 Aug 00:23:22 00:27:36 73° 76° (ENE) 00:31:53 437.525
BEESAT 2 04 Aug 00:28:31 00:32:01 26° 313° (NW) 00:35:31 435.950
UNISAT 6 04 Aug 00:29:21 00:33:35 33° 290° (WNW) 00:37:46 437.425
AUBIESAT-1 04 Aug 00:30:00 00:32:59 16° 302° (WNW) 00:35:47 437.475
DUCHIFAT 1 04 Aug 00:33:41 00:37:56 73° 285° (WNW) 00:42:10 145.980
VELOX 1 04 Aug 00:35:17 00:37:57 15° 269° (W) 00:40:27 145.980
Cosmos 2491 04 Aug 00:37:15 00:45:34 50° 270° (W) 00:53:46 435.465 / 435.565
NANOSAT C BR1 04 Aug 00:39:22 00:43:35 61° 286° (WNW) 00:47:47 145.865
QB50P1 04 Aug 00:39:27 00:43:40 60° 286° (WNW) 00:47:52 145.935-145.965
AIST 2 04 Aug 00:43:26 00:47:41 74° 303° (WNW) 00:51:58 435.215
ISS 04 Aug 00:47:13 00:49:17 16° 12° (NNE) 00:51:23 145.825
BEESAT 04 Aug 00:51:32 00:54:35 18° 64° (ENE) 00:57:48 436.000
YUBILEINY 04 Aug 00:56:04 01:04:48 83° 278° (W) 01:13:38 435.215
ESTCUBE 1 04 Aug 01:00:10 01:02:15 13° 271° (W) 01:04:07 437.505/2401.250
BEESAT 3 04 Aug 01:06:27 01:07:54 11° 322° (NW) 01:09:14 437.485
SWISSCUBE 04 Aug 01:11:23 01:15:29 29° 68° (ENE) 01:19:39 437.505
TIGRISAT 04 Aug 01:12:45 01:15:19 14° 296° (WNW) 01:17:39 435.000
ANTELSAT 04 Aug 01:16:17 01:18:28 13° 297° (WNW) 01:20:25 437.575/2403.000
O/OREOS (USA 219) 04 Aug 01:23:41 01:28:09 77° 111° (ESE) 01:32:40 437.305
POLYITAN 1 04 Aug 01:25:06 01:28:18 20° 292° (WNW) 01:31:23 437.675
BUGSAT 1 04 Aug 01:27:40 01:31:11 28° 290° (WNW) 01:34:40 437.445
ITUPSAT 1 04 Aug 01:33:27 01:37:58 43° 71° (ENE) 01:42:33 437.325
POPSAT HIP 1 04 Aug 01:41:34 01:43:57 14° 295° (WNW) 01:46:09 437.405
QB50P2 04 Aug 01:50:54 01:52:22 11° 297° (WNW) 01:53:37 145.880/145.840
Cosmos 2504 04 Aug 02:00:22 02:06:25 31° 85° (E) 02:12:59 435.465 / 435.565
TISAT 1 04 Aug 02:00:27 02:03:01 15° 269° (W) 02:05:26 437.305
Gurwin Techsat 1B 04 Aug 02:03:56 02:05:03 11° 86° (E) 02:06:32 435.225
Oscar 19 04 Aug 02:15:33 02:20:35 50° 99° (E) 02:25:38 437.125/150
ISS 04 Aug 02:23:07 02:26:19 50° 31° (NNE) 02:29:30 145.825
AIST 2 04 Aug 02:25:38 02:27:03 11° 324° (NW) 02:28:20 435.215
BEESAT 04 Aug 02:27:21 02:32:03 53° 260° (W) 02:36:45 436.000
KKS-1 04 Aug 02:28:15 02:31:54 26° 68° (ENE) 02:35:37 437.445
RS-15 04 Aug 02:40:56 02:49:06 21° 6° (N) 02:57:36 29.354- 29.394
SWISSCUBE 04 Aug 02:49:03 02:53:17 30° 264° (W) 02:57:29 437.505
YUBILEINY 04 Aug 02:57:46 03:03:19 17° 302° (WNW) 03:08:26 435.215
JAS-2 04 Aug 03:02:25 03:08:21 24° 88° (E) 03:14:25 435.910
O/OREOS (USA 219) 04 Aug 03:06:11 03:08:14 12° 310° (NW) 03:10:06 437.305
ITUPSAT 1 04 Aug 03:12:29 03:16:05 20° 268° (W) 03:19:34 437.325
STARS 04 Aug 03:28:47 03:33:07 70° 75° (ENE) 03:37:29 437.465
Gurwin Techsat 1B 04 Aug 03:40:31 03:45:52 88° 284° (WNW) 03:51:11 435.225
MOZHAYETS 4 04 Aug 03:42:35 03:45:57 21° 67° (ENE) 03:49:27
ITAMSAT 1 04 Aug 03:43:40 03:48:54 87° 109° (ESE) 03:54:04 435.822/435.867
Cosmos 2504 04 Aug 03:51:23 03:58:19 47° 286° (WNW) 04:05:43 435.465 / 435.565
Oscar 19 04 Aug 03:55:44 03:59:37 21° 295° (WNW) 04:03:23 437.125/150
ISS 04 Aug 04:00:09 04:02:31 18° 227° (SW) 04:04:48 145.825
CUSAT 1 04 Aug 04:03:47 04:06:21 36° 97° (E) 04:08:47 437.405
KKS-1 04 Aug 04:04:36 04:08:28 28° 265° (W) 04:12:17 437.445
DANDE 04 Aug 04:07:30 04:09:56 22° 97° (E) 04:12:10 436.750
JAS-2 04 Aug 04:46:14 04:54:06 73° 287° (WNW) 05:01:43 435.910
AO-7 04 Aug 04:51:27 04:59:37 57° 102° (ESE) 05:07:45 29.400- 29.500
RS-15 04 Aug 04:55:09 05:05:56 41° 39° (NE) 05:17:15 29.354- 29.394
HORYU 2 04 Aug 05:01:46 05:06:18 77° 104° (ESE) 05:10:48 437.375
STARS 04 Aug 05:09:34 05:10:09 10° 273° (W) 05:10:26 437.465
MOZHAYETS 4 04 Aug 05:18:31 05:22:55 41° 263° (W) 05:27:19
Gurwin Techsat 1B 04 Aug 05:22:57 05:25:09 12° 300° (WNW) 05:27:04 435.225
ITAMSAT 1 04 Aug 05:25:27 05:27:44 13° 300° (WNW) 05:29:45 435.822/435.867
GONETS M04 04 Aug 05:38:43 05:46:46 46° 89° (E) 05:54:56
CUBESAT XI-V 04 Aug 05:45:02 05:49:10 33° 70° (ENE) 05:53:21 437.345
STRAND 1 04 Aug 05:59:03 06:02:12 17° 63° (ENE) 06:05:33 437.568
Cubesat XI-IV 04 Aug 06:21:23 06:24:58 19° 91° (E) 06:28:45 437.490
